Location: *
(33.8649°S, 62.1526°E)
Time: 15:21:10
(UTC+00:00)

Envisat - Visible Passes

Search period start: 30 September 2022 00:00
Search period end: 10 October 2022 00:00
Orbit: 764 x 765 km, 98.2° (Epoch: 29 September)

Date Brightness Start Highest point End Pass type
(mag) Time Alt. Az. Time Alt. Az. Time Alt. Az.
30 Sep 4.0 22:57:07 11° NE 23:01:39 44° ESE 23:06:32 10° S visible
01 Oct 4.4 00:37:31 10° NW 00:40:49 17° W 00:44:09 10° SW visible
01 Oct 5.4 22:21:25 10° ENE 22:25:00 20° ESE 22:28:37 10° SSE visible
01 Oct 3.3 23:59:15 12° NNW 00:03:39 41° W 00:08:30 10° SSW visible
02 Oct 3.0 23:21:34 10° NNE 23:26:40 82° ESE 23:31:49 10° S visible
03 Oct 4.5 22:45:19 10° NE 22:49:52 34° ESE 22:54:29 10° S visible
04 Oct 4.1 00:24:55 10° NNW 00:28:52 23° W 00:32:53 10° SW visible
04 Oct 5.7 22:10:27 10° E 22:13:17 15° ESE 22:16:09 10° SSE visible
04 Oct 3.0 23:46:47 10° N 23:51:46 55° W 23:56:48 10° SSW visible
05 Oct 3.4 23:09:49 10° NNE 23:14:50 62° ESE 23:19:55 10° S visible
06 Oct 4.7 00:52:15 10° WNW 00:54:11 12° W 00:56:09 10° WSW visible
06 Oct 5.0 22:33:54 10° NE 22:38:07 27° ESE 22:42:21 10° SSE visible
07 Oct 3.7 00:12:32 10° NNW 00:16:57 30° W 00:21:25 10° SW visible
07 Oct 6.0 21:59:57 10° E 22:01:35 11° ESE 22:03:13 10° SE visible
07 Oct 2.9 23:34:49 10° N 23:39:54 73° WNW 23:45:02 10° SSW visible
08 Oct 3.9 22:58:09 10° NE 23:03:02 47° ESE 23:07:57 10° S visible
09 Oct 4.4 00:39:05 10° NW 00:42:13 16° W 00:45:23 10° SW visible
09 Oct 5.4 22:22:39 10° ENE 22:26:21 21° ESE 22:30:06 10° SSE visible
